Regional Weather Roundup
Issued by NWS

Home | Current Version | Previous Version | Graphics & Text | Print | Product List | Glossary Off
Versions: 1 2 3 4 5 6 7 8 9 10 11 12 13 14 15 16 17 18 19 20 21 22 23 24 25 26 27 28 29 30 31 32 33 34 35 36 37 38 39 40 41 42 43 44 45 46 47 48 49 50

000
ASUS43 KFSD 302110
RWRSD

WEATHER ROUNDUP FOR SOUTH DAKOTA
NATIONAL WEATHER SERVICE SIOUX FALLS SD
400 PM CDT SAT MAY 30 2015

NOTE: "FAIR" INDICATES FEW OR NO CLOUDS BELOW 12,000 FEET WITH NO
SIGNIFICANT WEATHER AND/OR OBSTRUCTIONS TO VISIBILITY.


SDZ001>005-009-010-012>017-302200-
NORTHWEST AND NORTH CENTRAL SOUTH DAKOTA

CITY           SKY/WX    TMP DP  RH WIND       PRES   REMARKS
BUFFALO          N/A     62  40  44 SE24G36   30.09F
FAITH            N/A     59  38  45 SE20G29   30.22F
MOBRIDGE       SUNNY     60  33  36 E10       30.26F
$$

SDZ012>016-024>037-041>051-057-063-072>074-302200-
SOUTHWEST AND SOUTH CENTRAL SOUTH DAKOTA

CITY           SKY/WX    TMP DP  RH WIND       PRES   REMARKS
RAPID CTY ARPT SUNNY     64  46  52 S20       30.18F
PIERRE         SUNNY     59  37  44 E10G17    30.27F
CUSTER         SUNNY     57  43  59 S9        30.23F
ELLSWORTH AFB  SUNNY     64  47  54 SE22G28   30.17F
PHILIP         MOSUNNY   61  40  45 SE12G20   30.24F
PINE RIDGE     SUNNY     64  39  39 SE10      30.21F
SPEARFISH      FAIR      66  50  55 E17G23    30.13F
WINNER         FAIR      61  33  35 VRB5      30.28F
$$

SDZ004>011-016>023-039-040-302200-
NORTHEAST SOUTH DAKOTA

CITY           SKY/WX    TMP DP  RH WIND       PRES   REMARKS
ABERDEEN       MOSUNNY   57  34  41 NE9G17    30.31F
WATERTOWN      SUNNY     58  36  43 NE13G18   30.28S
BROOKINGS      SUNNY     55  39  54 NE10G16   30.28S
SISSETON         N/A     56  37  49 NE13      30.30F
$$

SDZ017-020-022-023-036>040-048>070-302200-
SOUTHEAST SOUTH DAKOTA

CITY           SKY/WX    TMP DP  RH WIND       PRES   REMARKS
SIOUX FALLS    MOSUNNY   61  43  51 NE14      30.24F
HURON          SUNNY     62  36  37 NE9       30.28S
CHAMBERLAIN    SUNNY     59  33  37 N6        30.29S
MITCHELL       SUNNY     64  37  36 N8        30.27F
YANKTON        SUNNY     63  39  42 N13       30.23S
$$

ABBREVIATIONS USED IN REMARKS
   TC - TEMPERATURE IN CELSIUS
  WCI - WIND CHILL INDEX
   HX - HEAT INDEX
  VSB - VISIBILITY




USA.gov is the U.S. government's official web portal to all federal, state and local government web resources and services.